Home   Weather   Hollywood   Past weeks

Flag for USA Past Weather in Hollywood, California, USA — Yesterday and Last 2 Weeks

Now
68 °F

Clear.


Feels Like: 68 °F
Forecast: 65 / 85 °F
Wind: No wind

Location: Bob Hope Airport

Current Time: Sep 30, 2016 at 6:41:49 AM

Latest Report: Sep 30, 2016 at 5:53 AM


Visibility: 10 mi

Pressure: 29.99 "Hg

Humidity: 53%

Dew Point: 50 °F

Location of HollywoodLocation

Past Weather in Hollywood — Graph

°F

Hollywood Temperature Yesterday

Maximum temperature yesterday: 92 °F (at 12:53 PM)
Minimum temperature yesterday: 70 °F (at 6:53 AM)
Average temperature yesterday: 81 °F

High & Low Weather Summary for the Past Weeks

 TemperatureHumidityPressure
High101 °F (Sep 18, 1:53 PM)85% (Sep 22, 5:53 AM)30.01 "Hg (Sep 22, 5:53 AM)
Low55 °F (Sep 15, 6:53 AM)4% (Sep 25, 5:53 PM)29.78 "Hg (Sep 27, 2:53 PM)
Average76 °F42%29.90 "Hg
* Reported Sep 15 4:53 AM — Sep 30 4:53 AM, Hollywood, Weather by CustomWeather, © 2016

Note: Actual official high and low records may vary slightly from our data, if they occured in-between our weather recording intervals... More about our weather records

Advertising

Hollywood Weather History for the Previous 24 Hours

Scroll right to see more
 ConditionsComfort  
Time TempWeatherWind HumidityBarometerVisibility
4:53 AM
Fri, Sep 30
70 °FClear.No wind49%29.98 "Hg10 mi
3:53 AM70 °FClear.No wind49%29.98 "Hg10 mi
2:53 AM71 °FClear.6 mph47%29.99 "Hg10 mi
1:53 AM72 °FClear.5 mph57%30.00 "Hg10 mi
12:53 AM72 °FClear.No wind59%29.99 "Hg10 mi
11:53 PM
Thu, Sep 29
73 °FClear.8 mph59%30.00 "Hg10 mi
10:53 PM75 °FClear.9 mph54%29.99 "Hg10 mi
9:53 PM77 °FClear.6 mph50%29.98 "Hg10 mi
8:53 PM82 °FClear.No wind38%29.97 "Hg10 mi
7:53 PM81 °FClear.5 mph41%29.96 "Hg10 mi
6:53 PM87 °FClear.8 mph26%29.95 "Hg10 mi
5:53 PM91 °FSunny.No wind23%29.93 "Hg10 mi
4:53 PM90 °FSunny.8 mph24%29.93 "Hg10 mi
3:53 PM92 °FSunny.13 mph22%29.93 "Hg10 mi
2:53 PM92 °FSunny.13 mph22%29.95 "Hg10 mi
1:53 PM92 °FSunny.10 mph23%29.96 "Hg10 mi
12:53 PM92 °FSunny.9 mph27%29.97 "Hg10 mi
11:53 AM90 °FSunny.6 mph24%29.99 "Hg10 mi
10:53 AM87 °FSunny.No wind27%30.00 "Hg10 mi
9:53 AM83 °FSunny.No wind33%30.01 "Hg10 mi
8:53 AM79 °FSunny.No wind38%30.00 "Hg10 mi
7:53 AM74 °FSunny.3 mph43%29.98 "Hg10 mi
6:53 AM70 °FSunny.No wind53%29.98 "Hg10 mi
Weather by CustomWeather, © 2016

See weather overviewHow to use our weather pages